EN

Hourly Weather Kyzyltu

Today, 5 August, Thursday

Time Temperature Precipitation Wind Pressure Humidity
00:00 +32°C° 0 mm 4 mps 724 mmHg 20%
01:00 +30°C° 0 mm 3 mps 724 mmHg 22%
02:00 +28°C° 0 mm 3 mps 724 mmHg 24%
03:00 +28°C° 0 mm 3 mps 724 mmHg 26%
04:00 +27°C° 0 mm 2 mps 724 mmHg 27%
05:00 +27°C° 0 mm 2 mps 724 mmHg 29%
06:00 +28°C° 0 mm 3 mps 724 mmHg 26%
07:00 +30°C° 0 mm 3 mps 724 mmHg 23%
08:00 +32°C° 0 mm 4 mps 725 mmHg 21%
09:00 +34°C° 0 mm 3 mps 725 mmHg 18%
10:00 +37°C° 0 mm 3 mps 725 mmHg 16%
11:00 +39°C° 0 mm 3 mps 724 mmHg 14%
12:00 +40°C° 0 mm 2 mps 724 mmHg 13%
13:00 +41°C° 0 mm 2 mps 724 mmHg 12%
14:00 +42°C° 0 mm 1 mps 723 mmHg 10%
15:00 +42°C° 0 mm 2 mps 723 mmHg 10%
16:00 +44°C° 0 mm 3 mps 723 mmHg 10%
17:00 +44°C° 0 mm 3 mps 722 mmHg 10%
18:00 +42°C° 0 mm 5 mps 722 mmHg 11%
19:00 +40°C° 0 mm 6 mps 722 mmHg 13%
20:00 +38°C° 0 mm 7 mps 722 mmHg 15%
21:00 +36°C° 0 mm 7 mps 722 mmHg 16%
22:00 +34°C° 0 mm 6 mps 722 mmHg 18%
23:00 +33°C° 0 mm 5 mps 722 mmHg 19%

Tomorrow, 6 August, Friday

Time Temperature Precipitation Wind Pressure Humidity
00:00 +32°C° 0 mm 4 mps 722 mmHg 22%
01:00 +29°C° 0 mm 4 mps 722 mmHg 25%
02:00 +28°C° 0 mm 3 mps 722 mmHg 27%
03:00 +28°C° 0 mm 3 mps 722 mmHg 29%
04:00 +27°C° 0 mm 2 mps 722 mmHg 30%
05:00 +26°C° 0 mm 2 mps 722 mmHg 31%
06:00 +28°C° 0 mm 2 mps 723 mmHg 28%
07:00 +29°C° 0 mm 2 mps 723 mmHg 24%
08:00 +31°C° 0 mm 2 mps 724 mmHg 21%
09:00 +34°C° 0 mm 2 mps 724 mmHg 18%
10:00 +37°C° 0 mm 2 mps 724 mmHg 16%
11:00 +39°C° 0 mm 1 mps 724 mmHg 13%
12:00 +40°C° 0 mm 2 mps 723 mmHg 12%
13:00 +42°C° 0 mm 2 mps 723 mmHg 11%
14:00 +44°C° 0 mm 3 mps 723 mmHg 10%
15:00 +44°C° 0 mm 4 mps 722 mmHg 9%
16:00 +45°C° 0 mm 5 mps 722 mmHg 9%
17:00 +45°C° 0 mm 6 mps 722 mmHg 8%
18:00 +42°C° 0 mm 6 mps 722 mmHg 9%
19:00 +40°C° 0 mm 6 mps 722 mmHg 11%
20:00 +38°C° 0 mm 6 mps 722 mmHg 12%
21:00 +35°C° 0 mm 5 mps 722 mmHg 13%
22:00 +34°C° 0 mm 5 mps 722 mmHg 15%
23:00 +33°C° 0 mm 5 mps 722 mmHg 16%

Day after tomorrow, 7 August, Saturday

Time Temperature Precipitation Wind Pressure Humidity
00:00 +32°C° 0 mm 4 mps 722 mmHg 18%
01:00 +30°C° 0 mm 3 mps 722 mmHg 19%
02:00 +29°C° 0 mm 3 mps 722 mmHg 21%
03:00 +28°C° 0 mm 2 mps 722 mmHg 22%
04:00 +27°C° 0 mm 2 mps 723 mmHg 23%
05:00 +26°C° 0 mm 2 mps 723 mmHg 25%
06:00 +28°C° 0 mm 2 mps 723 mmHg 22%
07:00 +30°C° 0 mm 2 mps 724 mmHg 20%
08:00 +32°C° 0 mm 2 mps 724 mmHg 17%
09:00 +36°C° 0 mm 3 mps 724 mmHg 15%
10:00 +38°C° 0 mm 4 mps 724 mmHg 13%
11:00 +42°C° 0 mm 5 mps 724 mmHg 10%
12:00 +43°C° 0 mm 5 mps 724 mmHg 10%
13:00 +43°C° 0 mm 5 mps 724 mmHg 9%
14:00 +45°C° 0 mm 6 mps 723 mmHg 8%
15:00 +45°C° 0 mm 6 mps 723 mmHg 8%
16:00 +45°C° 0 mm 6 mps 723 mmHg 9%
17:00 +44°C° 0 mm 7 mps 723 mmHg 9%
18:00 +41°C° 0 mm 6 mps 723 mmHg 11%
19:00 +37°C° 0 mm 5 mps 723 mmHg 13%
20:00 +35°C° 0 mm 4 mps 724 mmHg 14%
21:00 +34°C° 0 mm 4 mps 724 mmHg 15%
22:00 +33°C° 0 mm 3 mps 724 mmHg 16%
23:00 +31°C° 0 mm 3 mps 724 mmHg 17%

8 August, Sunday

Time Temperature Precipitation Wind Pressure Humidity
00:00 +30°C° 0 mm 3 mps 724 mmHg 18%
01:00 +29°C° 0 mm 2 mps 724 mmHg 20%
02:00 +28°C° 0 mm 2 mps 724 mmHg 21%
03:00 +28°C° 0 mm 2 mps 724 mmHg 22%
04:00 +27°C° 0 mm 2 mps 724 mmHg 22%
05:00 +27°C° 0 mm 2 mps 725 mmHg 23%
06:00 +29°C° 0 mm 2 mps 725 mmHg 21%
07:00 +31°C° 0 mm 2 mps 726 mmHg 18%
08:00 +33°C° 0 mm 1 mps 726 mmHg 16%
09:00 +37°C° 0 mm 2 mps 726 mmHg 14%
10:00 +39°C° 0 mm 3 mps 726 mmHg 11%
11:00 +43°C° 0 mm 3 mps 726 mmHg 9%
12:00 +43°C° 0 mm 4 mps 726 mmHg 9%
13:00 +44°C° 0 mm 4 mps 725 mmHg 8%
14:00 +46°C° 0 mm 5 mps 725 mmHg 7%
15:00 +46°C° 0 mm 5 mps 725 mmHg 7%
16:00 +46°C° 0 mm 6 mps 725 mmHg 7%
17:00 +45°C° 0 mm 6 mps 725 mmHg 8%
18:00 +42°C° 0 mm 6 mps 725 mmHg 10%
19:00 +39°C° 0 mm 5 mps 725 mmHg 12%
20:00 +36°C° 0 mm 4 mps 725 mmHg 14%
21:00 +35°C° 0 mm 4 mps 725 mmHg 15%
22:00 +34°C° 0 mm 4 mps 725 mmHg 16%
23:00 +33°C° 0 mm 4 mps 725 mmHg 17%

9 August, Monday

Time Temperature Precipitation Wind Pressure Humidity
00:00 +31°C° 0 mm 3 mps 725 mmHg 19%
01:00 +30°C° 0 mm 3 mps 724 mmHg 21%
02:00 +28°C° 0 mm 3 mps 724 mmHg 23%
03:00 +28°C° 0 mm 2 mps 724 mmHg 24%
04:00 +27°C° 0 mm 2 mps 725 mmHg 24%
05:00 +27°C° 0 mm 2 mps 725 mmHg 24%
06:00 +28°C° 0 mm 2 mps 725 mmHg 22%
07:00 +30°C° 0 mm 2 mps 726 mmHg 20%
08:00 +32°C° 0 mm 2 mps 726 mmHg 17%
09:00 +35°C° 0 mm 3 mps 726 mmHg 15%
10:00 +38°C° 0 mm 3 mps 726 mmHg 14%
11:00 +41°C° 0 mm 4 mps 727 mmHg 12%
12:00 +42°C° 0 mm 5 mps 726 mmHg 11%
13:00 +42°C° 0 mm 5 mps 726 mmHg 10%
14:00 +44°C° 0 mm 6 mps 726 mmHg 9%
15:00 +44°C° 0 mm 6 mps 726 mmHg 9%
16:00 +42°C° 0 mm 6 mps 726 mmHg 9%
17:00 +42°C° 0 mm 6 mps 726 mmHg 9%
18:00 +39°C° 0 mm 6 mps 726 mmHg 11%
19:00 +36°C° 0 mm 6 mps 726 mmHg 12%
20:00 +34°C° 0 mm 6 mps 727 mmHg 14%
21:00 +33°C° 0 mm 6 mps 727 mmHg 15%
22:00 +30°C° 0 mm 6 mps 727 mmHg 15%
23:00 +29°C° 0 mm 5 mps 727 mmHg 16%

10 August, Tuesday

Time Temperature Precipitation Wind Pressure Humidity
00:00 +28°C° 0 mm 4 mps 727 mmHg 17%
01:00 +26°C° 0 mm 4 mps 726 mmHg 19%
02:00 +25°C° 0 mm 3 mps 726 mmHg 20%
03:00 +24°C° 0 mm 3 mps 726 mmHg 21%
04:00 +24°C° 0 mm 2 mps 726 mmHg 22%
05:00 +23°C° 0 mm 2 mps 726 mmHg 23%
06:00 +25°C° 0 mm 2 mps 727 mmHg 21%
07:00 +27°C° 0 mm 2 mps 727 mmHg 19%
08:00 +29°C° 0 mm 2 mps 727 mmHg 17%
09:00 +31°C° 0 mm 2 mps 727 mmHg 15%
10:00 +35°C° 0 mm 2 mps 727 mmHg 13%
11:00 +37°C° 0 mm 3 mps 727 mmHg 11%
12:00 +38°C° 0 mm 3 mps 727 mmHg 10%
13:00 +41°C° 0 mm 4 mps 726 mmHg 8%
14:00 +42°C° 0 mm 4 mps 726 mmHg 7%
15:00 +42°C° 0 mm 5 mps 726 mmHg 7%
16:00 +42°C° 0 mm 5 mps 725 mmHg 7%
17:00 +42°C° 0 mm 6 mps 725 mmHg 6%
18:00 +39°C° 0 mm 5 mps 725 mmHg 8%
19:00 +36°C° 0 mm 5 mps 725 mmHg 10%
20:00 +33°C° 0 mm 5 mps 725 mmHg 12%
21:00 +32°C° 0 mm 5 mps 725 mmHg 14%
22:00 +30°C° 0 mm 4 mps 725 mmHg 16%
23:00 +28°C° 0 mm 4 mps 725 mmHg 19%
Show more